This is the latest recevied weather packets stored in our database for station/object W0AVQ. If no packets are shown the sender has not sent any weather packets the latest 10 day(s).
| Time | Temp. | Humidity | Pressure | Rain* | Wind** | Luminosity | Snow |
|---|---|---|---|---|---|---|---|
| 1777567356 | 17.22° C | 42% | 1020.6 hPa | 0 mm | - | 517 W/m² | - |
| 1777567054 | 17.78° C | 43% | 1020.6 hPa | 0 mm | - | 303 W/m² | - |
| 1777566752 | 17.22° C | 44% | 1020.8 hPa | 0 mm | - | 173 W/m² | - |
| 1777566449 | 17.22° C | 41% | 1020.8 hPa | 0 mm | - | 629 W/m² | - |
| 1777566147 | 16.67° C | 41% | 1020.7 hPa | 0 mm | - | 663 W/m² | - |
| 1777565841 | 16.67° C | 44% | 1020.6 hPa | 0 mm | - | 433 W/m² | - |
| 1777565538 | 16.67° C | 41% | 1020.6 hPa | 0 mm | - | 588 W/m² | - |
| 1777565235 | 16.67° C | 42% | 1020.6 hPa | 0 mm | - | 636 W/m² | - |
| 1777564931 | 17.22° C | 46% | 1020.5 hPa | 0 mm | - | 669 W/m² | - |
| 1777564626 | 16.67° C | 44% | 1020.4 hPa | 0 mm | - | 650 W/m² | - |
| 1777564322 | 15.56° C | 46% | 1020.8 hPa | 0 mm | - | 742 W/m² | - |
| 1777564018 | 16.11° C | 48% | 1020.6 hPa | 0 mm | - | 765 W/m² | - |
| 1777563714 | 16.67° C | 46% | 1020.6 hPa | 0 mm | - | 727 W/m² | - |
| 1777563410 | 16.11° C | 48% | 1020.3 hPa | 0 mm | - | 649 W/m² | - |
| 1777563105 | 16.11° C | 50% | 1020.6 hPa | 0 mm | - | 603 W/m² | - |
| 1777562801 | 16.11° C | 48% | 1020.7 hPa | 0 mm | - | 524 W/m² | - |
| 1777562499 | 15.56° C | 49% | 1020.6 hPa | 0 mm | - | 351 W/m² | - |
| 1777562197 | 16.11° C | 53% | 1020.6 hPa | 0 mm | - | 220 W/m² | - |
| 1777561895 | 16.11° C | 51% | 1020.4 hPa | 0 mm | - | 147 W/m² | - |
| 1777561591 | 15.56° C | 53% | 1020.5 hPa | 0 mm | - | 127 W/m² | - |
| 1777561287 | 15° C | 54% | 1020.6 hPa | 0 mm | - | 123 W/m² | - |
| 1777560986 | 15° C | 63% | 1020.5 hPa | 0 mm | - | 111 W/m² | - |
| 1777560682 | 15° C | 59% | 1020.4 hPa | 0 mm | - | 100 W/m² | - |
| 1777560380 | 15° C | 61% | 1020.6 hPa | 0 mm | - | 94 W/m² | - |
| 1777560078 | 15° C | 61% | 1020.7 hPa | 0 mm | - | 88 W/m² | - |
* Rain latest hour (hover to see other rain measurements)
** Current wind speed in m/s (hover to see current wind gust speed)